This is the latest recevied weather packets stored in our database for station/object E27ASY-4. If no packets are shown the sender has not sent any weather packets the latest 10 day(s).
| Time | Temp. | Humidity | Pressure | Rain* | Wind** | Luminosity | Snow |
|---|---|---|---|---|---|---|---|
| 1777948318 | 34.44° C | 91% | 1009 hPa | - | - | 0 W/m² | - |
| 1777947997 | 34.44° C | 80% | 1009 hPa | - | - | 0 W/m² | - |
| 1777947675 | 33.89° C | 74% | 1009 hPa | - | - | 0 W/m² | - |
| 1777947352 | 33.89° C | 81% | 1009 hPa | - | - | 0 W/m² | - |
| 1777947030 | 33.33° C | 91% | 1009 hPa | - | - | 0 W/m² | - |
| 1777946708 | 33.33° C | 97% | 1009 hPa | - | - | 0 W/m² | - |
| 1777946386 | 32.78° C | 95% | 1009 hPa | - | - | 0 W/m² | - |
| 1777946064 | 32.22° C | 92% | 1009 hPa | - | - | 0 W/m² | - |
| 1777945742 | 31.67° C | 99% | 1009 hPa | - | - | 0 W/m² | - |
| 1777945420 | 30.56° C | 99% | 1009 hPa | - | - | 0 W/m² | - |
| 1777945098 | 30° C | 99% | 1009 hPa | - | - | 0 W/m² | - |
| 1777944776 | 28.89° C | 99% | 1009 hPa | - | - | 0 W/m² | - |
| 1777944454 | 28.33° C | 99% | 1009 hPa | - | - | 0 W/m² | - |
| 1777944132 | 28.33° C | 99% | 1009 hPa | - | - | 0 W/m² | - |
| 1777943810 | 28.33° C | 99% | 1009 hPa | - | - | 0 W/m² | - |
| 1777943488 | 28.33° C | 99% | 1009 hPa | - | - | 0 W/m² | - |
| 1777943166 | 27.78° C | 99% | 1009 hPa | - | - | 0 W/m² | - |
| 1777942844 | 27.22° C | 99% | 1009 hPa | - | - | 0 W/m² | - |
| 1777942513 | 27.22° C | 99% | 1009 hPa | - | - | 0 W/m² | - |
| 1777942191 | 26.11° C | 99% | 1009 hPa | - | - | 0 W/m² | - |
| 1777941869 | 26.11° C | 99% | 1009 hPa | - | - | 0 W/m² | - |
| 1777941547 | 26.11° C | 99% | 1009 hPa | - | - | 0 W/m² | - |
| 1777941225 | 26.11° C | 99% | 1009 hPa | - | - | 0 W/m² | - |
| 1777940903 | 25.56° C | 99% | 1009 hPa | - | - | 0 W/m² | - |
| 1777940581 | 25.56° C | 99% | 1008 hPa | - | - | 0 W/m² | - |
* Rain since midnight (hover to see other rain measurements)
** Current wind speed in m/s (hover to see current wind gust speed)